Location: Newark
(20.5800°N, 87.1197°W)
Time: 07:05:40
(UTC+00:00)

N. Korean satellite - Pass Details

Date: 24 July 2019
Orbit: 457 x 507 km, 97.2° (Epoch: 23 August)

Event Time Altitude Azimuth Distance (km) Brightness Sun altitude
Rises 10:47:12 0° 36° (NE) 2,604 11.5 -7.9°
Reaches altitude 10° 10:50:01 10° 60° (ENE) 1,718 11.1 -7.3°
Maximum altitude 10:52:12 15° 97° (E) 1,425 9.9 -6.8°
Drops below altitude 10° 10:54:23 10° 133° (SE) 1,711 9.7 -6.4°
Sets 10:57:11 0° 157° (SSE) 2,588 10.3 -5.8°
